Tracking 28790 objects as of 19-Apr-2024
HD Live streaming from Space Station
objects crossing your sky now

FENGYUN 1C DEB

Track FENGYUN 1C DEB now!
10-day predictions


NORAD ID: 30758
Int'l Code: 1999-025ATU
Perigee: 829.3 km
Apogee: 889.2 km
Inclination: 99.0 °
Period: 102.0 minutes
Semi major axis: 7230 km
RCS: 0.0121 m2 (small)
Launch date: May 10, 1999
Source: People's Republic of China (PRC)
Launch site: Taiyaun Space Center, China (TSC)

Note: This is SATELLITE DEBRIS
Your satellite tracking list
Your tracking list is empty




NASA's NSSDC Master Catalog

Two Line Element Set (TLE):
1 30758U 99025ATU 24109.87653618  .00004756  00000-0  25946-2 0  9998
2 30758  98.9851 217.3856 0041406 268.2026 220.3637 14.12120268879653
Source of the keplerian elements: AFSPC